Year,Month,Day,Hour,Minute,Value (Times are PST for temperature in C)
2010,03,15,00,00,5.00
2010,03,15,00,01,5.00
2010,03,15,00,02,5.00
2010,03,15,00,03,5.00
2010,03,15,00,04,5.00
2010,03,15,00,05,5.10
2010,03,15,00,06,5.00
2010,03,15,00,07,5.10
2010,03,15,00,08,5.10
2010,03,15,00,09,5.10
2010,03,15,00,10,5.10
2010,03,15,00,11,5.10
2010,03,15,00,12,5.10
2010,03,15,00,13,5.10
2010,03,15,00,14,5.10
2010,03,15,00,15,5.10
2010,03,15,00,16,5.10
2010,03,15,00,17,5.10
2010,03,15,00,18,5.10
2010,03,15,00,19,5.10
2010,03,15,00,20,5.10
2010,03,15,00,21,5.10
2010,03,15,00,22,5.10
2010,03,15,00,23,5.10
2010,03,15,00,24,5.10
2010,03,15,00,25,5.10
2010,03,15,00,26,5.10
2010,03,15,00,27,5.10
2010,03,15,00,28,5.10
2010,03,15,00,29,5.10
2010,03,15,00,30,5.10
2010,03,15,00,31,5.10
2010,03,15,00,32,5.10
2010,03,15,00,33,5.10
2010,03,15,00,34,5.10
2010,03,15,00,35,5.10
2010,03,15,00,36,5.10
2010,03,15,00,37,5.10
2010,03,15,00,38,5.10
2010,03,15,00,39,5.10
2010,03,15,00,40,5.10
2010,03,15,00,41,5.10
2010,03,15,00,42,5.10
2010,03,15,00,43,5.10
2010,03,15,00,44,5.10
2010,03,15,00,45,5.10
2010,03,15,00,46,5.10
2010,03,15,00,47,5.10
2010,03,15,00,48,5.10
2010,03,15,00,49,5.10
2010,03,15,00,50,5.10
2010,03,15,00,51,5.10
2010,03,15,00,52,5.10
2010,03,15,00,53,5.10
2010,03,15,00,54,5.10
2010,03,15,00,55,5.10
2010,03,15,00,56,5.10
2010,03,15,00,57,5.10
2010,03,15,00,58,5.10
2010,03,15,00,59,5.10
2010,03,15,01,00,5.10
2010,03,15,01,01,5.10
2010,03,15,01,02,5.10
2010,03,15,01,03,5.10
2010,03,15,01,04,5.10
2010,03,15,01,05,5.10
2010,03,15,01,06,5.10
2010,03,15,01,07,5.10
2010,03,15,01,08,5.10
2010,03,15,01,09,5.10
2010,03,15,01,10,5.10
2010,03,15,01,11,5.10
2010,03,15,01,12,5.10
2010,03,15,01,13,5.10
2010,03,15,01,14,5.10
2010,03,15,01,15,5.10
2010,03,15,01,16,5.10
2010,03,15,01,17,5.10
2010,03,15,01,18,5.10
2010,03,15,01,19,5.10
2010,03,15,01,20,5.10
2010,03,15,01,21,5.10
2010,03,15,01,22,5.10
2010,03,15,01,23,5.10
2010,03,15,01,24,5.10
2010,03,15,01,25,5.10
2010,03,15,01,26,5.10
2010,03,15,01,27,5.10
2010,03,15,01,28,5.10
2010,03,15,01,29,5.10
2010,03,15,01,30,5.10
2010,03,15,01,31,5.10
2010,03,15,01,32,5.10
2010,03,15,01,33,5.10
2010,03,15,01,34,5.20
2010,03,15,01,35,5.10
2010,03,15,01,36,5.10
2010,03,15,01,37,5.20
2010,03,15,01,38,5.20
2010,03,15,01,39,5.20
2010,03,15,01,40,5.20
2010,03,15,01,41,5.20
2010,03,15,01,42,5.20
2010,03,15,01,43,5.20
2010,03,15,01,44,5.20
2010,03,15,01,45,5.20
2010,03,15,01,46,5.20
2010,03,15,01,47,5.20
2010,03,15,01,48,5.20
2010,03,15,01,49,5.20
2010,03,15,01,50,5.20
2010,03,15,01,51,5.20
2010,03,15,01,52,5.20
2010,03,15,01,53,5.20
2010,03,15,01,54,5.20
2010,03,15,01,55,5.20
2010,03,15,01,56,5.20
2010,03,15,01,57,5.20
2010,03,15,01,58,5.20
2010,03,15,01,59,5.20
2010,03,15,02,00,5.20
2010,03,15,02,01,5.20
2010,03,15,02,02,5.20
2010,03,15,02,03,5.20
2010,03,15,02,04,5.20
2010,03,15,02,05,5.20
2010,03,15,02,06,5.20
2010,03,15,02,07,5.20
2010,03,15,02,08,5.20
2010,03,15,02,09,5.20
2010,03,15,02,10,5.20
2010,03,15,02,11,5.20
2010,03,15,02,12,5.20
2010,03,15,02,13,5.20
2010,03,15,02,14,5.20
2010,03,15,02,15,5.20
2010,03,15,02,16,5.30
2010,03,15,02,17,5.30
2010,03,15,02,18,5.30
2010,03,15,02,19,5.30
2010,03,15,02,20,5.30
2010,03,15,02,21,5.30
2010,03,15,02,22,5.30
2010,03,15,02,23,5.30
2010,03,15,02,24,5.30
2010,03,15,02,25,5.30
2010,03,15,02,26,5.30
2010,03,15,02,27,5.30
2010,03,15,02,28,5.30
2010,03,15,02,29,5.30
2010,03,15,02,30,5.30
2010,03,15,02,31,5.30
2010,03,15,02,32,5.30
2010,03,15,02,33,5.30
2010,03,15,02,34,5.30
2010,03,15,02,35,5.30
2010,03,15,02,36,5.30
2010,03,15,02,37,5.30
2010,03,15,02,38,5.30
2010,03,15,02,39,5.30
2010,03,15,02,40,5.30
2010,03,15,02,41,5.30
2010,03,15,02,42,5.30
2010,03,15,02,43,5.30
2010,03,15,02,44,5.30
2010,03,15,02,45,5.30
2010,03,15,02,46,5.30
2010,03,15,02,47,5.30
2010,03,15,02,48,5.30
2010,03,15,02,49,5.30
2010,03,15,02,50,5.30
2010,03,15,02,51,5.30
2010,03,15,02,52,5.30
2010,03,15,02,53,5.30
2010,03,15,02,54,5.30
2010,03,15,02,55,5.40
2010,03,15,02,56,5.40
2010,03,15,02,57,5.40
2010,03,15,02,58,5.40
2010,03,15,02,59,5.40
2010,03,15,03,00,5.40
2010,03,15,03,01,5.40
2010,03,15,03,02,5.40
2010,03,15,03,03,5.30
2010,03,15,03,04,5.40
2010,03,15,03,05,5.40
2010,03,15,03,06,5.40
2010,03,15,03,07,5.40
2010,03,15,03,08,5.40
2010,03,15,03,09,5.40
2010,03,15,03,10,5.40
2010,03,15,03,11,5.40
2010,03,15,03,12,5.30
2010,03,15,03,13,5.40
2010,03,15,03,14,5.40
2010,03,15,03,15,5.40
2010,03,15,03,16,5.40
2010,03,15,03,17,5.40
2010,03,15,03,18,5.40
2010,03,15,03,19,5.40
2010,03,15,03,20,5.40
2010,03,15,03,21,5.40
2010,03,15,03,22,5.40
2010,03,15,03,23,5.40
2010,03,15,03,24,5.40
2010,03,15,03,25,5.40
2010,03,15,03,26,5.40
2010,03,15,03,27,5.40
2010,03,15,03,28,5.40
2010,03,15,03,29,5.40
2010,03,15,03,30,5.40
2010,03,15,03,31,5.40
2010,03,15,03,32,5.40
2010,03,15,03,33,5.40
2010,03,15,03,34,5.40
2010,03,15,03,35,5.40
2010,03,15,03,36,5.40
2010,03,15,03,37,5.40
2010,03,15,03,38,5.40
2010,03,15,03,39,5.40
2010,03,15,03,40,5.40
2010,03,15,03,41,5.40
2010,03,15,03,42,5.40
2010,03,15,03,43,5.40
2010,03,15,03,44,5.40
2010,03,15,03,45,5.40
2010,03,15,03,46,5.40
2010,03,15,03,47,5.40
2010,03,15,03,48,5.40
2010,03,15,03,49,5.40
2010,03,15,03,50,5.40
2010,03,15,03,51,5.40
2010,03,15,03,52,5.40
2010,03,15,03,53,5.30
2010,03,15,03,54,5.30
2010,03,15,03,55,5.30
2010,03,15,03,56,5.30
2010,03,15,03,57,5.30
2010,03,15,03,58,5.30
2010,03,15,03,59,5.30
2010,03,15,04,00,5.30
2010,03,15,04,01,5.30
2010,03,15,04,02,5.30
2010,03,15,04,03,5.30
2010,03,15,04,04,5.30
2010,03,15,04,05,5.30
2010,03,15,04,06,5.30
2010,03,15,04,07,5.30
2010,03,15,04,08,5.30
2010,03,15,04,09,5.30
2010,03,15,04,10,5.30
2010,03,15,04,11,5.30
2010,03,15,04,12,5.30
2010,03,15,04,13,5.30
2010,03,15,04,14,5.30
2010,03,15,04,15,5.30
2010,03,15,04,16,5.30
2010,03,15,04,17,5.30
2010,03,15,04,18,5.30
2010,03,15,04,19,5.30
2010,03,15,04,20,5.30
2010,03,15,04,21,5.30
2010,03,15,04,22,5.30
2010,03,15,04,23,5.30
2010,03,15,04,24,5.30
2010,03,15,04,25,5.30
2010,03,15,04,26,5.30
2010,03,15,04,27,5.30
2010,03,15,04,28,5.30
2010,03,15,04,29,5.30
2010,03,15,04,30,5.30
2010,03,15,04,31,5.30
2010,03,15,04,32,5.30
2010,03,15,04,33,5.30
2010,03,15,04,34,5.30
2010,03,15,04,35,5.30
2010,03,15,04,36,5.30
2010,03,15,04,37,5.30
2010,03,15,04,38,5.30
2010,03,15,04,39,5.30
2010,03,15,04,40,5.30
2010,03,15,04,41,5.30
2010,03,15,04,42,5.30
2010,03,15,04,43,5.30
2010,03,15,04,44,5.30
2010,03,15,04,45,5.30
2010,03,15,04,46,5.30
2010,03,15,04,47,5.30
2010,03,15,04,48,5.30
2010,03,15,04,49,5.30
2010,03,15,04,50,5.30
2010,03,15,04,51,5.30
2010,03,15,04,52,5.30
2010,03,15,04,53,5.30
2010,03,15,04,54,5.30
2010,03,15,04,55,5.30
2010,03,15,04,56,5.30
2010,03,15,04,57,5.30
2010,03,15,04,58,5.30
2010,03,15,04,59,5.30
2010,03,15,05,00,5.30
2010,03,15,05,01,5.30
2010,03,15,05,02,5.30
2010,03,15,05,03,5.30
2010,03,15,05,04,5.40
2010,03,15,05,05,5.40
2010,03,15,05,06,5.40
2010,03,15,05,07,5.40
2010,03,15,05,08,5.40
2010,03,15,05,09,5.40
2010,03,15,05,10,5.40
2010,03,15,05,11,5.40
2010,03,15,05,12,5.40
2010,03,15,05,13,5.40
2010,03,15,05,14,5.40
2010,03,15,05,15,5.40
2010,03,15,05,16,5.40
2010,03,15,05,17,5.40
2010,03,15,05,18,5.40
2010,03,15,05,19,5.40
2010,03,15,05,20,5.40
2010,03,15,05,21,5.40
2010,03,15,05,22,5.40
2010,03,15,05,23,5.40
2010,03,15,05,24,5.40
2010,03,15,05,25,5.40
2010,03,15,05,26,5.40
2010,03,15,05,27,5.40
2010,03,15,05,28,5.40
2010,03,15,05,29,5.40
2010,03,15,05,30,5.40
2010,03,15,05,31,5.40
2010,03,15,05,32,5.40
2010,03,15,05,33,5.40
2010,03,15,05,34,5.40
2010,03,15,05,35,5.40
2010,03,15,05,36,5.40
2010,03,15,05,37,5.40
2010,03,15,05,38,5.40
2010,03,15,05,39,5.40
2010,03,15,05,40,5.40
2010,03,15,05,41,5.40
2010,03,15,05,42,5.40
2010,03,15,05,43,5.40
2010,03,15,05,44,5.40
2010,03,15,05,45,5.40
2010,03,15,05,46,5.40
2010,03,15,05,47,5.40
2010,03,15,05,48,5.40
2010,03,15,05,49,5.40
2010,03,15,05,50,5.40
2010,03,15,05,51,5.40
2010,03,15,05,52,5.40
2010,03,15,05,53,5.40
2010,03,15,05,54,5.40
2010,03,15,05,55,5.40
2010,03,15,05,56,5.40
2010,03,15,05,57,5.40
2010,03,15,05,58,5.40
2010,03,15,05,59,5.40
2010,03,15,06,00,5.40
2010,03,15,06,01,5.40
2010,03,15,06,02,5.40
2010,03,15,06,03,5.40
2010,03,15,06,04,5.40
2010,03,15,06,05,5.40
2010,03,15,06,06,5.40
2010,03,15,06,07,5.40
2010,03,15,06,08,5.40
2010,03,15,06,09,5.40
2010,03,15,06,10,5.40
2010,03,15,06,11,5.40
2010,03,15,06,12,5.40
2010,03,15,06,13,5.40
2010,03,15,06,14,5.40
2010,03,15,06,15,5.40
2010,03,15,06,16,5.40
2010,03,15,06,17,5.40
2010,03,15,06,18,5.40
2010,03,15,06,19,5.40
2010,03,15,06,20,5.40
2010,03,15,06,21,5.40
2010,03,15,06,22,5.40
2010,03,15,06,23,5.40
2010,03,15,06,24,5.40
2010,03,15,06,25,5.40
2010,03,15,06,26,5.40
2010,03,15,06,27,5.40
2010,03,15,06,28,5.40
2010,03,15,06,29,5.40
2010,03,15,06,30,5.40
2010,03,15,06,31,5.40
2010,03,15,06,32,5.40
2010,03,15,06,33,5.40
2010,03,15,06,34,5.40
2010,03,15,06,35,5.40
2010,03,15,06,36,5.40
2010,03,15,06,37,5.40
2010,03,15,06,38,5.40
2010,03,15,06,39,5.40
2010,03,15,06,40,5.40
2010,03,15,06,41,5.40
2010,03,15,06,42,5.40
2010,03,15,06,43,5.40
2010,03,15,06,44,5.40
2010,03,15,06,45,5.40
2010,03,15,06,46,5.40
2010,03,15,06,47,5.40
2010,03,15,06,48,5.40
2010,03,15,06,49,5.40
2010,03,15,06,50,5.40
2010,03,15,06,51,5.40
2010,03,15,06,52,5.40
2010,03,15,06,53,5.40
2010,03,15,06,54,5.40
2010,03,15,06,55,5.40
2010,03,15,06,56,5.40
2010,03,15,06,57,5.40
2010,03,15,06,58,5.40
2010,03,15,06,59,5.40
2010,03,15,07,00,5.40
2010,03,15,07,01,5.40
2010,03,15,07,02,5.40
2010,03,15,07,03,5.40
2010,03,15,07,04,5.40
2010,03,15,07,05,5.40
2010,03,15,07,06,5.40
2010,03,15,07,07,5.40
2010,03,15,07,08,5.40
2010,03,15,07,09,5.40
2010,03,15,07,10,5.40
2010,03,15,07,11,5.40
2010,03,15,07,12,5.40
2010,03,15,07,13,5.40
2010,03,15,07,14,5.40
2010,03,15,07,15,5.40
2010,03,15,07,16,5.40
2010,03,15,07,17,5.40
2010,03,15,07,18,5.40
2010,03,15,07,19,5.40
2010,03,15,07,20,5.40
2010,03,15,07,21,5.40
2010,03,15,07,22,5.40
2010,03,15,07,23,5.40
2010,03,15,07,24,5.40
2010,03,15,07,25,5.40
2010,03,15,07,26,5.40
2010,03,15,07,27,5.40
2010,03,15,07,28,5.40
2010,03,15,07,29,5.40
2010,03,15,07,30,5.40
2010,03,15,07,31,5.40
2010,03,15,07,32,5.40
2010,03,15,07,33,5.40
2010,03,15,07,34,5.40
2010,03,15,07,35,5.40
2010,03,15,07,36,5.40
2010,03,15,07,37,5.40
2010,03,15,07,38,5.40
2010,03,15,07,39,5.50
2010,03,15,07,40,5.40
2010,03,15,07,41,5.40
2010,03,15,07,42,5.40
2010,03,15,07,43,5.40
2010,03,15,07,44,5.40
2010,03,15,07,45,5.40
2010,03,15,07,46,5.40
2010,03,15,07,47,5.40
2010,03,15,07,48,5.40
2010,03,15,07,49,5.40
2010,03,15,07,50,5.40
2010,03,15,07,51,5.40
2010,03,15,07,52,5.40
2010,03,15,07,53,5.40
2010,03,15,07,54,5.40
2010,03,15,07,55,5.40
2010,03,15,07,56,5.40
2010,03,15,07,57,5.40
2010,03,15,07,58,5.40
2010,03,15,07,59,5.40
2010,03,15,08,00,5.40
2010,03,15,08,01,5.50
2010,03,15,08,02,5.50
2010,03,15,08,03,5.50
2010,03,15,08,04,5.50
2010,03,15,08,05,5.50
2010,03,15,08,06,5.50
2010,03,15,08,07,5.50
2010,03,15,08,08,5.50
2010,03,15,08,09,5.50
2010,03,15,08,10,5.50
2010,03,15,08,11,5.50
2010,03,15,08,12,5.40
2010,03,15,08,13,5.50
2010,03,15,08,14,5.50
2010,03,15,08,15,5.50
2010,03,15,08,16,5.50
2010,03,15,08,17,5.40
2010,03,15,08,18,5.50
2010,03,15,08,19,5.40
2010,03,15,08,20,5.40
2010,03,15,08,21,5.40
2010,03,15,08,22,5.40
2010,03,15,08,23,5.40
2010,03,15,08,24,5.40
2010,03,15,08,25,5.40
2010,03,15,08,26,5.40
2010,03,15,08,27,5.40
2010,03,15,08,28,5.50
2010,03,15,08,29,5.50
2010,03,15,08,30,5.50
2010,03,15,08,31,5.50
2010,03,15,08,32,5.50
2010,03,15,08,33,5.50
2010,03,15,08,34,5.50
2010,03,15,08,35,5.50
2010,03,15,08,36,5.50
2010,03,15,08,37,5.50
2010,03,15,08,38,5.50
2010,03,15,08,39,5.50
2010,03,15,08,40,5.50
2010,03,15,08,41,5.50
2010,03,15,08,42,5.50
2010,03,15,08,43,5.50
2010,03,15,08,44,5.60
2010,03,15,08,45,5.60
2010,03,15,08,46,5.60
2010,03,15,08,47,5.60
2010,03,15,08,48,5.60
2010,03,15,08,49,5.60
2010,03,15,08,50,5.60
2010,03,15,08,51,5.60
2010,03,15,08,52,5.60
2010,03,15,08,53,5.60
2010,03,15,08,54,5.60
2010,03,15,08,55,5.60
2010,03,15,08,56,5.60
2010,03,15,08,57,5.60
2010,03,15,08,58,5.60
2010,03,15,08,59,5.60
2010,03,15,09,00,5.60
2010,03,15,09,01,5.60
2010,03,15,09,02,5.60
2010,03,15,09,03,5.60
2010,03,15,09,04,5.60
2010,03,15,09,05,5.60
2010,03,15,09,06,5.60
2010,03,15,09,07,5.60
2010,03,15,09,08,5.60
2010,03,15,09,09,5.60
2010,03,15,09,10,5.60
2010,03,15,09,11,5.70
2010,03,15,09,12,5.70
2010,03,15,09,13,5.70
2010,03,15,09,14,5.70
2010,03,15,09,15,5.70
2010,03,15,09,16,5.70
2010,03,15,09,17,5.70
2010,03,15,09,18,5.70
2010,03,15,09,19,5.60
2010,03,15,09,20,5.60
2010,03,15,09,21,5.60
2010,03,15,09,22,5.60
2010,03,15,09,23,5.60
2010,03,15,09,24,5.70
2010,03,15,09,25,5.70
2010,03,15,09,26,5.70
2010,03,15,09,27,5.70
2010,03,15,09,28,5.70
2010,03,15,09,29,5.70
2010,03,15,09,30,5.70
2010,03,15,09,31,5.70
2010,03,15,09,32,5.70
2010,03,15,09,33,5.70
2010,03,15,09,34,5.70
2010,03,15,09,35,5.70
2010,03,15,09,36,5.70
2010,03,15,09,37,5.70
2010,03,15,09,38,5.70
2010,03,15,09,39,5.70
2010,03,15,09,40,5.70
2010,03,15,09,41,5.70
2010,03,15,09,42,5.70
2010,03,15,09,43,5.70
2010,03,15,09,44,5.70
2010,03,15,09,45,5.70
2010,03,15,09,46,5.80
2010,03,15,09,47,5.80
2010,03,15,09,48,5.80
2010,03,15,09,49,5.80
2010,03,15,09,50,5.80
2010,03,15,09,51,5.80
2010,03,15,09,52,5.80
2010,03,15,09,53,5.80
2010,03,15,09,54,5.80
2010,03,15,09,55,5.80
2010,03,15,09,56,5.80
2010,03,15,09,57,5.90
2010,03,15,09,58,5.90
2010,03,15,09,59,5.90
2010,03,15,10,00,5.90
2010,03,15,10,01,5.90
2010,03,15,10,02,5.90
2010,03,15,10,03,5.90
2010,03,15,10,04,5.90
2010,03,15,10,05,5.90
2010,03,15,10,06,5.90
2010,03,15,10,07,5.90
2010,03,15,10,08,6.00
2010,03,15,10,09,6.00
2010,03,15,10,10,6.00
2010,03,15,10,11,6.00
2010,03,15,10,12,6.00
2010,03,15,10,13,6.00
2010,03,15,10,14,6.00
2010,03,15,10,15,6.10
2010,03,15,10,16,6.10
2010,03,15,10,17,6.10
2010,03,15,10,18,6.10
2010,03,15,10,19,6.10
2010,03,15,10,20,6.10
2010,03,15,10,21,6.10
2010,03,15,10,22,6.10
2010,03,15,10,23,6.20
2010,03,15,10,24,6.20
2010,03,15,10,25,6.20
2010,03,15,10,26,6.30
2010,03,15,10,27,6.30
2010,03,15,10,28,6.30
2010,03,15,10,29,6.30
2010,03,15,10,30,6.30
2010,03,15,10,31,6.30
2010,03,15,10,32,6.40
2010,03,15,10,33,6.40
2010,03,15,10,34,6.40
2010,03,15,10,35,6.50
2010,03,15,10,36,6.50
2010,03,15,10,37,6.50
2010,03,15,10,38,6.50
2010,03,15,10,39,6.50
2010,03,15,10,40,6.50
2010,03,15,10,41,6.50
2010,03,15,10,42,6.60
2010,03,15,10,43,6.60
2010,03,15,10,44,6.60
2010,03,15,10,45,6.60
2010,03,15,10,46,6.60
2010,03,15,10,47,6.70
2010,03,15,10,48,6.70
2010,03,15,10,49,6.70
2010,03,15,10,50,6.70
2010,03,15,10,51,6.70
2010,03,15,10,52,6.70
2010,03,15,10,53,6.70
2010,03,15,10,54,6.70
2010,03,15,10,55,6.70
2010,03,15,10,56,6.70
2010,03,15,10,57,6.70
2010,03,15,10,58,6.70
2010,03,15,10,59,6.70
2010,03,15,11,00,6.70
2010,03,15,11,01,6.80
2010,03,15,11,02,6.80
2010,03,15,11,03,6.80
2010,03,15,11,04,6.80
2010,03,15,11,05,6.80
2010,03,15,11,06,6.80
2010,03,15,11,07,6.90
2010,03,15,11,08,6.90
2010,03,15,11,09,6.90
2010,03,15,11,10,6.90
2010,03,15,11,11,7.00
2010,03,15,11,12,7.00
2010,03,15,11,13,7.10
2010,03,15,11,14,7.10
2010,03,15,11,15,7.10
2010,03,15,11,16,7.10
2010,03,15,11,17,7.20
2010,03,15,11,18,7.20
2010,03,15,11,19,7.20
2010,03,15,11,20,7.20
2010,03,15,11,21,7.20
2010,03,15,11,22,7.20
2010,03,15,11,23,7.20
2010,03,15,11,24,7.20
2010,03,15,11,25,7.20
2010,03,15,11,26,7.20
2010,03,15,11,27,7.20
2010,03,15,11,28,7.20
2010,03,15,11,29,7.20
2010,03,15,11,30,7.30
2010,03,15,11,31,7.30
2010,03,15,11,32,7.30
2010,03,15,11,33,7.30
2010,03,15,11,34,7.40
2010,03,15,11,35,7.40
2010,03,15,11,36,7.40
2010,03,15,11,37,7.40
2010,03,15,11,38,7.40
2010,03,15,11,39,7.50
2010,03,15,11,40,7.50
